Location: Martz Observatory
(42.0083°N, 79.0667°W)
Time: 18:50:33
(UTC-04:00)

SL-08 R/B - Pass Details

Date: 26 May 2018
Orbit: 946 x 994 km, 83.0° (Epoch: 20 June)

Event Time Altitude Azimuth Distance (km) Brightness Sun altitude
Rises 02:06:55 0° 349° (N) 3,633 8.5 -25.7°
Reaches altitude 10° 02:09:27 10° 346° (NNW) 2,680 7.6 -25.5°
Maximum altitude 02:15:28 63° 267° (W) 1,048 4.5 -25.2°
Enters shadow 02:16:20 57° 228° (SW) 1,108 4.4 -25.2°
